Skip Page Navigation
NASA JPL Caltech
NASA Logo - Jet Propulsion Laboratory + View the NASA Portal
+ Near-Earth Object (NEO) Program
Search JPL
JPL Home Earth Solar System Stars & Galaxies Technology
JPL Solar System Dynamics
BODIES ORBITS EPHEMERIDES TOOLS PHYSICAL DATA DISCOVERY FAQ SITE MAP
JPL Small-Body Database Browser
Search: [ help ]  
(2002 GZ8)
Classification: Amor [NEO, PHA]          SPK-ID: 3120894
Ephemeris | Orbit Diagram | Orbital Elements | Physical Parameters | Close-Approach Data ]

[ hide orbit diagram ]
Orbit Diagram
Note: Make sure you have Java enabled on your browser to see the applet. This applet is provided as a 3D orbit visualization tool. The applet was implemented using 2-body methods, and hence should not be used for determining accurate long-term trajectories (over several years or decades) or planetary encounter circumstances. For accurate long-term ephemerides, please instead use our Horizons system.
Orbit Viewer

Additional Notes: the orbits shown in the applet are color coded. The planets are white lines, and the asteroid/comet is a blue line. The bright white line indicates the portion of the orbit that is above the ecliptic plane, and the darker portion is below the ecliptic plane. Likewise for the asteroid/comet orbit, the light blue indicates the portion above the ecliptic plane, and the dark blue the portion below the ecliptic plane.

Orbit Viewer applet originally written and kindly provided by Osamu Ajiki (AstroArts), and further modified by Ron Baalke (JPL).


Orbital Elements at Epoch 2456400.5 (2013-Apr-18.0) TDB
Reference: JPL 25 (heliocentric ecliptic J2000)
 Element Value Uncertainty (1-sigma)   Units 
e .6387956894322651 1.9136e-07  
a 2.829202438736224 5.6966e-07 AU
q 1.021920116340272 3.7729e-07 AU
i 5.303777121048202 3.0265e-05 deg
node 309.8592415298056 0.000499 deg
peri 161.4130756256254 0.00048 deg
M 135.8320239310282 0.00026375 deg
tp 2455744.665689203632
(2011-Jul-02.16568920)
0.0010758 JED
period 1738.178855426449
4.76
0.00052497
1.437e-06
d
yr
n .2071133237388719 6.2553e-08 deg/d
Q 4.636484761132176 9.3356e-07 AU
  Orbit Determination Parameters
   # obs. used (total)      110  
   data-arc span      3247 days (8.89 yr)  
   first obs. used      2001-10-13  
   last obs. used      2010-09-03  
   planetary ephem.      DE405  
   SB-pert. ephem.      SB405-CPV-2  
   condition code      1  
   fit RMS      .60467  
   data source      ORB  
   producer      Otto Matic  
   solution date      2011-Sep-14 19:45:41  

Additional Information
 Earth MOID = .0446774 AU 
 T_jup = 2.969 
[ show covariance matrix ]

Ephemeris | Orbit Diagram | Orbital Elements | Physical Parameters | Close-Approach Data ]

Physical Parameter Table
Parameter Symbol Value Units Sigma Reference Notes
absolute magnitude H 18.13 mag .85242 25 autocmod 2.5a

[ show close-approach data ]
Ephemeris | Orbit Diagram | Orbital Elements | Physical Parameters | Close-Approach Data ]
ABOUT SSD CREDITS/AWARDS PRIVACY/COPYRIGHT GLOSSARY LINKS
FirstGov 2013-May-18 10:31 UT
(server date/time)  
NASA Home Page
Site Manager:   Donald K. Yeomans
Webmaster  Alan B. Chamberlin